カタログに戻る

STARLINK-30705

運用中通信VLEO
NORAD 57945·PAYLOAD·🇺🇸 United States

打ち上げ Sep 25, 2023 から Vandenberg Space Force Base

Loading…

次のパス (今後24時間)

TLE

最新Source: CelesTrak SupGP

元期: Sep 14, 2026, 20:41 UTC

1 57945C 23148L   26257.86229167  .00046157  00000+0  13632-2 0  2577
2 57945  53.1575 222.0975 0001241  94.6740 311.8758 15.34379494    16

AllMySatでSTARLINK-30705をリアルタイム追跡

Download on the App Store